sat.trackr.live / text

‹ back to catalog

2024-085D

NORAD 59680 · 2024-085D

PAYLOAD ACTIVE UNKNOWN

§ Identity

Operator
Country
PRC
Launch date
2024-05-07
Launch site
TAISC
Launch vehicle
Mass (kg)
RCS (m²)

External: N2YO · Heavens-Above · Gunter

§ Orbital elements

Epoch: 2026-05-25T04:33:41.947776Z

Period
93.80 min
Inclination
97.3245°
Eccentricity
0.0014840
Mean motion
15.35199709 rev/d
Perigee alt
450.2 km
Apogee alt
470.5 km
Semi-major
6,838.5 km
B*
3.3830e-4
RAAN
221.0935°
Arg perigee
134.5490°
Mean anomaly
225.6968°
Rev number
11,413

§ Raw data

2024-085D1 59680U 24085D   26145.19006884  .00011524  00000+0  33830-3 0  99932 59680  97.3245 221.0935 0014840 134.5490 225.6968 15.35199709114132

JSON: /api/v1/satellites/59680 · /tle

For live sub-satellite position, see the globe view (requires WebGL).

§ Visibility from observer

Set your observer location to see the next 7 days of passes ≥ 10°. The values pass through the URL so the page stays shareable.

No JS? Fill the form by hand. The geolocation button needs JavaScript.